"startDT [UTC]","vpos","CH4 [ppm]","stdev(CH4) [ppm]","CO2 [ppm]","stdev(CO2) [ppm]","H2O_reported [%]","stdev(H2O_reported)","CavityPressure [torr]","CavityTemp [C]","OutletValve","CH4_dry [ppm]","CO2_dry [ppm]","DasTemp [C]","EtalonTemp [C]","WarmBoxTemp [C]","MPVPosition","T_ECpre [C]","T_EC1 [C]","T_EC2 [C]","p_inlet [hPa]","p_in [hPa]","p_out [hPa]","T_inlet [C]","RH_inlet [%]","dwpt_inlet [C]","T_vent [C]","RH_vent [%]","dwpt_vent [C]","flow_vent [l min-1]","flow_inlet [l min-1]","dwpt_sample [C]","T_room [C]"
2015-12-28 05:48:00,0.0,1.93066,0.00033,404.452,0.033,0.1303,0.0018,139.999,44.996,31673.15447,1.93312,405.089,33.831,45.066,44.996,0.00,0.09,-272.75,-272.80,-7,522,-949,20.7,4.1,-22.6,20.8,4.2,-22.3,5.73,1.94,-13.6,26.4
2015-12-28 05:49:00,0.0,1.93065,0.00032,404.443,0.041,0.1316,0.0016,139.996,44.994,31657.13880,1.93317,405.083,33.475,45.065,44.995,0.00,0.09,-272.75,-272.80,-7,522,-948,20.6,4.1,-22.5,20.7,4.2,-22.3,5.73,1.99,-13.6,26.2
2015-12-28 05:50:00,0.0,1.93061,0.00025,404.442,0.033,0.1308,0.0015,139.997,44.994,31642.58898,1.93309,405.079,33.129,45.065,44.996,0.00,0.09,-272.75,-272.80,-7,522,-947,20.6,4.1,-22.6,20.6,4.2,-22.3,5.73,1.93,-13.3,26.1
2015-12-28 05:51:00,0.0,1.93091,0.00033,404.495,0.029,0.1288,0.0018,139.998,44.994,31625.69075,1.93337,405.124,32.890,45.066,44.997,0.00,0.09,-272.75,-272.81,-7,522,-947,20.6,4.1,-22.7,20.6,4.2,-22.4,5.73,1.95,-13.1,25.9
2015-12-28 05:52:00,0.0,1.93076,0.00035,404.460,0.040,0.1267,0.0017,139.995,44.994,31613.83475,1.93316,405.080,32.659,45.067,44.997,0.00,0.09,-272.75,-272.80,-7,521,-947,20.5,4.0,-22.9,20.5,4.2,-22.6,5.73,1.96,-13.1,25.8
2015-12-28 05:53:00,0.0,1.93096,0.00033,404.381,0.027,0.1256,0.0013,139.996,44.995,31600.44846,1.93335,404.992,32.375,45.067,44.998,0.00,0.09,-272.74,-272.80,-7,521,-947,20.4,4.0,-23.0,20.4,4.1,-22.7,5.73,1.91,-13.2,25.5
2015-12-28 05:54:00,0.0,1.93103,0.00056,404.370,0.031,0.1246,0.0014,140.000,44.995,31585.83339,1.93338,404.979,32.065,45.068,44.998,0.00,0.09,-272.74,-272.80,-6,521,-946,20.3,4.0,-23.1,20.3,4.1,-22.8,5.73,1.81,-13.3,25.4
2015-12-28 05:55:00,0.0,1.93147,0.00045,404.361,0.039,0.1241,0.0013,139.998,44.995,31568.24393,1.93385,404.966,31.712,45.068,44.998,0.00,0.09,-272.75,-272.81,-5,520,-946,20.2,4.0,-23.2,20.1,4.1,-22.9,5.73,1.80,-13.5,25.2
2015-12-28 05:56:00,0.0,1.93162,0.00038,404.334,0.037,0.1239,0.0015,139.998,44.994,31548.23922,1.93396,404.938,31.308,45.067,44.997,0.00,0.09,-272.75,-272.81,-7,520,-945,20.0,4.0,-23.3,20.0,4.1,-23.0,5.73,2.03,-13.7,25.0
2015-12-28 05:57:00,0.0,1.93107,0.00046,404.355,0.031,0.1233,0.0017,139.996,44.994,31524.95773,1.93344,404.956,30.942,45.067,44.998,0.00,0.09,-272.75,-272.80,-8,520,-944,19.9,4.0,-23.4,19.8,4.1,-23.1,5.73,2.26,-14.0,24.8
2015-12-28 05:58:00,0.0,1.93112,0.00039,404.396,0.032,0.1230,0.0013,139.999,44.994,31504.14727,1.93344,404.995,30.646,45.068,44.998,0.00,0.09,-272.74,-272.81,-4,519,-944,19.8,4.0,-23.4,19.7,4.2,-23.1,5.73,1.83,-14.1,24.7
2015-12-28 05:59:00,0.0,1.93087,0.00046,404.392,0.033,0.1237,0.0022,139.999,44.994,31490.23698,1.93326,404.995,30.433,45.068,44.998,0.00,0.09,-272.74,-272.81,-6,519,-944,19.7,4.1,-23.3,19.6,4.2,-23.1,5.73,1.74,-14.3,24.6
2015-12-28 06:00:00,3.0,1.88300,0.01911,399.487,2.282,0.0298,0.0407,139.991,44.995,31322.80334,1.88541,399.761,30.290,45.069,44.999,0.00,0.09,-272.74,-272.80,-6,495,-944,19.6,4.1,-23.2,19.5,4.3,-23.0,5.73,2.13,-14.5,24.4
2015-12-28 06:01:00,3.0,1.87668,0.00038,397.201,0.062,0.0065,0.0018,139.998,44.996,31300.00701,1.87677,397.234,30.157,45.069,44.999,0.00,0.09,-272.75,-272.80,-4,494,-943,19.6,4.1,-23.2,19.4,4.3,-23.0,5.73,2.16,-14.5,24.3
2015-12-28 06:02:00,3.0,1.87673,0.00033,397.379,0.089,0.0072,0.0018,139.999,44.997,31291.90098,1.87687,397.408,30.024,45.070,44.999,0.00,0.09,-272.76,-272.80,-3,495,-943,19.5,4.2,-23.1,19.4,4.3,-22.9,5.73,1.89,-14.7,24.2
2015-12-28 06:03:00,3.0,1.87658,0.00032,397.547,0.035,0.0064,0.0017,139.997,44.997,31285.63521,1.87672,397.576,29.915,45.070,44.999,0.00,0.09,-272.74,-272.80,-5,495,-943,19.5,4.3,-22.8,19.3,4.4,-22.7,5.73,1.75,-14.7,24.2
2015-12-28 06:04:00,3.0,1.87650,0.00027,397.576,0.032,0.0054,0.0021,139.999,44.997,31283.81340,1.87659,397.602,29.828,45.070,44.999,0.00,0.09,-272.73,-272.80,-5,495,-943,19.5,4.4,-22.7,19.3,4.5,-22.4,5.73,1.94,-14.8,24.1
2015-12-28 06:05:00,3.0,1.87633,0.00038,397.577,0.032,0.0045,0.0024,139.997,44.997,31281.20061,1.87641,397.599,29.742,45.070,44.998,0.00,0.09,-272.75,-272.80,-3,496,-943,19.5,4.4,-22.5,19.3,4.6,-22.3,5.73,2.17,-14.9,24.1
2015-12-28 06:06:00,3.0,1.87676,0.00026,397.592,0.030,0.0034,0.0016,139.999,44.997,31279.83117,1.87681,397.608,29.679,45.069,44.998,0.00,0.09,-272.74,-272.80,-4,496,-942,19.5,4.5,-22.4,19.3,4.6,-22.2,5.73,2.13,-14.9,24.0
2015-12-28 06:07:00,3.0,1.87673,0.00034,397.600,0.028,0.0034,0.0019,140.000,44.997,31277.99525,1.87679,397.617,29.633,45.069,44.997,0.00,0.09,-272.74,-272.79,-5,496,-942,19.5,4.6,-22.2,19.2,4.7,-22.0,5.73,1.92,-15.0,23.9
2015-12-28 06:08:00,3.0,1.87673,0.00042,397.608,0.023,0.0031,0.0020,140.000,44.997,31277.00661,1.87682,397.622,29.625,45.069,44.997,0.00,0.09,-272.74,-272.81,-5,497,-942,19.5,4.7,-21.9,19.3,4.8,-21.8,5.73,1.86,-15.0,23.9
2015-12-28 06:09:00,3.0,1.87677,0.00025,397.604,0.024,0.0011,0.0018,140.000,44.998,31276.55284,1.87678,397.610,29.598,45.068,44.997,0.00,0.09,-272.74,-272.81,-3,497,-942,19.5,4.7,-21.8,19.2,4.9,-21.6,5.73,1.88,-15.1,23.8
2015-12-28 06:10:00,3.0,1.87669,0.00049,397.611,0.031,0.0019,0.0022,139.999,44.998,31277.37571,1.87672,397.620,29.567,45.069,44.997,0.00,0.09,-272.74,-272.80,-3,498,-941,19.5,4.8,-21.7,19.2,4.9,-21.5,5.73,2.00,-15.1,23.8
2015-12-28 06:11:00,3.0,1.87675,0.00042,397.616,0.028,0.0004,0.0014,140.000,44.998,31278.77343,1.87678,397.617,29.566,45.069,44.997,0.00,0.09,-272.74,-272.81,-4,498,-941,19.5,4.8,-21.6,19.2,5.0,-21.4,5.73,2.07,-15.1,23.7
2015-12-28 06:12:00,3.0,1.87630,0.00035,397.603,0.031,0.0017,0.0013,139.999,44.998,31280.43323,1.87631,397.611,29.565,45.069,44.998,0.00,0.09,-272.75,-272.80,-5,499,-941,19.5,4.8,-21.6,19.1,5.0,-21.4,5.73,2.09,-15.1,23.7
2015-12-28 06:13:00,3.0,1.87642,0.00035,397.602,0.026,0.0012,0.0020,139.996,44.998,31280.47907,1.87644,397.609,29.564,45.069,44.998,0.00,0.09,-272.75,-272.80,-5,499,-941,19.4,4.8,-21.6,19.1,5.0,-21.4,5.73,2.06,-15.2,23.7
2015-12-28 06:14:00,3.0,1.87637,0.00034,397.603,0.035,0.0008,0.0019,140.001,44.999,31282.16724,1.87639,397.606,29.564,45.069,44.998,0.00,0.09,-272.74,-272.79,-4,499,-941,19.4,4.8,-21.6,19.1,5.0,-21.3,5.73,2.01,-15.2,23.6
2015-12-28 06:15:00,3.0,1.87644,0.00027,397.595,0.027,-0.0005,0.0017,139.999,44.999,31282.94950,1.87645,397.595,29.586,45.069,44.998,0.00,0.09,-272.75,-272.79,-3,499,-941,19.4,4.8,-21.6,19.1,5.1,-21.3,5.73,1.96,-15.2,23.6
2015-12-28 06:16:00,3.0,1.87645,0.00031,397.615,0.029,0.0005,0.0019,140.000,44.999,31282.52257,1.87647,397.616,29.624,45.070,44.998,0.00,0.09,-272.75,-272.80,-3,500,-941,19.4,4.8,-21.6,19.1,5.0,-21.4,5.73,1.94,-15.2,23.6
2015-12-28 06:17:00,3.0,1.87654,0.00026,397.603,0.033,-0.0001,0.0016,140.000,44.999,31285.51330,1.87651,397.602,29.624,45.070,44.998,0.00,0.09,-272.73,-272.80,-3,500,-941,19.4,4.8,-21.6,19.1,5.0,-21.4,5.73,1.91,-15.2,23.5
2015-12-28 06:18:00,3.0,1.87647,0.00045,397.601,0.027,-0.0003,0.0016,139.998,44.999,31284.60235,1.87648,397.600,29.625,45.070,44.998,0.00,0.09,-272.74,-272.80,-4,500,-940,19.3,4.8,-21.7,19.1,5.0,-21.4,5.73,1.93,-15.3,23.5
2015-12-28 06:19:00,3.0,1.87652,0.00024,397.633,0.023,0.0002,0.0020,139.999,44.999,31284.82083,1.87651,397.633,29.630,45.070,44.998,0.00,0.09,-272.74,-272.80,-4,500,-940,19.3,4.8,-21.8,19.0,5.0,-21.5,5.73,1.93,-15.3,23.5
2015-12-28 06:20:00,3.0,1.87646,0.00036,397.615,0.032,0.0004,0.0020,140.000,44.999,31285.87360,1.87647,397.617,29.656,45.070,44.999,0.00,0.09,-272.73,-272.80,-4,500,-940,19.3,4.8,-21.8,19.0,5.0,-21.5,5.73,1.94,-15.3,23.5
2015-12-28 06:21:00,3.0,1.87654,0.00033,397.612,0.036,0.0005,0.0017,140.000,44.999,31286.37046,1.87656,397.614,29.672,45.070,44.999,0.00,0.09,-272.74,-272.80,-4,501,-940,19.3,4.8,-21.8,19.0,5.0,-21.5,5.73,1.96,-15.3,23.5
2015-12-28 06:22:00,3.0,1.87636,0.00049,397.602,0.039,-0.0002,0.0016,139.997,45.000,31289.16213,1.87633,397.601,29.687,45.070,44.999,0.00,0.09,-272.74,-272.81,-4,501,-940,19.3,4.7,-22.0,19.0,4.9,-21.7,5.73,1.96,-15.3,23.4
2015-12-28 06:23:00,3.0,1.87642,0.00042,397.624,0.023,0.0005,0.0019,139.997,45.000,31290.08392,1.87647,397.627,29.702,45.070,44.999,0.00,0.09,-272.74,-272.80,-4,501,-940,19.3,4.6,-22.1,18.9,4.9,-21.8,5.73,2.05,-15.3,23.4
2015-12-28 06:24:00,3.0,1.87627,0.00026,397.595,0.030,0.0001,0.0019,139.999,45.000,31292.40980,1.87624,397.596,29.710,45.071,44.999,0.00,0.09,-272.74,-272.79,-3,501,-940,19.3,4.6,-22.2,18.9,4.9,-21.9,5.73,1.99,-15.3,23.3
2015-12-28 06:25:00,2.0,1.85179,0.01211,391.277,2.985,0.0035,0.0034,140.045,45.000,31868.53799,1.85285,391.423,29.744,45.071,44.999,0.00,0.09,-272.75,-272.80,-3,589,-939,19.3,4.7,-22.1,18.9,4.9,-21.8,5.73,1.96,-15.3,23.4
2015-12-28 06:26:00,2.0,1.84647,0.00039,389.671,0.033,0.0033,0.0021,140.002,45.000,31927.05204,1.84651,389.686,29.750,45.071,44.999,0.00,0.09,-272.75,-272.80,-3,591,-939,19.3,4.7,-22.0,18.9,4.9,-21.8,5.73,1.98,-15.4,23.3
2015-12-28 06:27:00,2.0,1.84626,0.00044,389.635,0.028,0.0047,0.0019,139.998,45.000,31942.66199,1.84637,389.657,29.760,45.071,45.000,0.00,0.09,-272.74,-272.80,-3,592,-939,19.3,4.7,-22.0,18.9,4.9,-21.7,5.73,1.98,-15.4,23.3
2015-12-28 06:28:00,2.0,1.84644,0.00040,389.639,0.031,0.0046,0.0017,139.995,45.000,31950.71115,1.84652,389.661,29.792,45.071,44.999,0.00,0.09,-272.74,-272.80,-3,593,-939,19.3,4.7,-21.9,18.9,4.9,-21.7,5.73,1.97,-15.4,23.4
2015-12-28 06:29:00,2.0,1.84643,0.00023,389.624,0.036,0.0031,0.0016,139.999,45.000,31961.45576,1.84646,389.640,29.783,45.071,45.000,0.00,0.09,-272.75,-272.80,-3,593,-939,19.2,4.7,-22.0,18.9,5.0,-21.7,5.73,1.98,-15.4,23.3
2015-12-28 06:30:00,2.0,1.84624,0.00031,389.629,0.026,0.0029,0.0021,139.997,45.000,31969.47545,1.84631,389.641,29.803,45.071,45.000,0.00,0.09,-272.74,-272.80,-3,593,-939,19.2,4.7,-22.1,18.9,4.9,-21.8,5.73,1.95,-15.4,23.3
2015-12-28 06:31:00,2.0,1.84636,0.00033,389.617,0.031,0.0010,0.0017,140.003,45.000,31977.21265,1.84639,389.622,29.801,45.071,45.000,0.00,0.09,-272.74,-272.80,-4,593,-939,19.2,4.7,-22.2,18.9,4.9,-21.8,5.73,1.97,-15.4,23.3
2015-12-28 06:32:00,2.0,1.84611,0.00032,389.621,0.026,-0.0004,0.0015,140.001,45.000,31983.48959,1.84609,389.620,29.813,45.071,45.000,0.00,0.09,-272.75,-272.80,-4,594,-939,19.2,4.6,-22.2,18.9,4.9,-21.9,5.73,1.99,-15.4,23.3
2015-12-28 06:33:00,2.0,1.84640,0.00035,389.604,0.043,0.0021,0.0010,139.998,45.000,31985.35701,1.84642,389.614,29.813,45.072,45.000,0.00,0.09,-272.74,-272.80,-4,594,-939,19.2,4.6,-22.4,18.8,4.8,-22.1,5.73,1.98,-15.4,23.3
2015-12-28 06:34:00,2.0,1.84639,0.00029,389.621,0.019,0.0006,0.0023,139.999,45.000,31988.85851,1.84642,389.623,29.823,45.072,45.000,0.00,0.09,-272.74,-272.80,-4,594,-939,19.2,4.5,-22.5,18.8,4.8,-22.2,5.73,1.98,-15.4,23.3
2015-12-28 06:35:00,2.0,1.84634,0.00030,389.624,0.030,0.0006,0.0023,139.999,45.000,31992.06669,1.84635,389.627,29.866,45.071,45.000,0.00,0.09,-272.74,-272.80,-4,594,-938,19.2,4.6,-22.4,18.8,4.8,-22.2,5.73,2.00,-15.4,23.2
2015-12-28 06:36:00,2.0,1.84634,0.00037,389.636,0.038,0.0001,0.0016,139.999,45.000,31994.79976,1.84633,389.636,29.875,45.072,45.000,0.00,0.09,-272.74,-272.81,-4,594,-938,19.2,4.6,-22.4,18.8,4.8,-22.2,5.73,2.00,-15.4,23.3
2015-12-28 06:37:00,2.0,1.84614,0.00027,389.625,0.029,0.0005,0.0013,140.001,45.000,32000.21004,1.84615,389.629,29.907,45.071,45.000,0.00,0.09,-272.73,-272.79,-4,594,-938,19.2,4.6,-22.3,18.8,4.8,-22.1,5.73,2.02,-15.4,23.2
2015-12-28 06:38:00,2.0,1.84608,0.00042,389.596,0.030,0.0004,0.0015,140.001,45.000,32002.62579,1.84609,389.598,29.938,45.071,45.000,0.00,0.09,-272.75,-272.80,-3,594,-938,19.2,4.6,-22.3,18.7,4.8,-22.1,5.73,2.05,-15.5,23.3
2015-12-28 06:39:00,2.0,1.84611,0.00036,389.614,0.045,0.0002,0.0016,139.999,45.000,32003.87805,1.84611,389.614,29.938,45.071,44.999,0.00,0.09,-272.75,-272.81,-4,594,-938,19.2,4.7,-22.2,18.7,4.9,-22.0,5.73,2.00,-15.5,23.3
2015-12-28 06:40:00,2.0,1.84628,0.00029,389.631,0.022,-0.0003,0.0018,139.998,45.000,32003.45593,1.84626,389.629,29.939,45.071,45.000,0.00,0.09,-272.75,-272.80,-4,594,-938,19.1,4.7,-22.1,18.7,4.9,-21.9,5.73,2.00,-15.5,23.2
2015-12-28 06:41:00,2.0,1.84657,0.00030,389.630,0.025,0.0001,0.0018,139.999,45.000,32002.82608,1.84657,389.630,29.944,45.071,45.000,0.00,0.09,-272.74,-272.80,-4,594,-938,19.1,4.7,-22.1,18.7,4.9,-21.9,5.73,2.00,-15.5,23.3
2015-12-28 06:42:00,2.0,1.84654,0.00030,389.634,0.022,0.0003,0.0023,139.996,45.000,32003.98975,1.84654,389.636,29.973,45.071,45.000,0.00,0.09,-272.75,-272.80,-4,594,-938,19.1,4.7,-22.2,18.7,4.9,-22.0,5.73,1.99,-15.4,23.2
2015-12-28 06:43:00,2.0,1.84632,0.00033,389.621,0.035,-0.0003,0.0016,139.998,45.000,32006.74680,1.84631,389.620,29.989,45.072,45.000,0.00,0.09,-272.75,-272.80,-3,594,-938,19.1,4.7,-22.2,18.7,4.9,-21.9,5.73,1.98,-15.5,23.2
2015-12-28 06:44:00,2.0,1.84615,0.00036,389.612,0.034,-0.0010,0.0019,140.000,45.000,32009.78372,1.84615,389.608,29.997,45.071,45.000,0.00,0.09,-272.74,-272.79,-4,594,-938,19.1,4.7,-22.0,18.7,4.9,-21.8,5.73,1.98,-15.5,23.2
2015-12-28 06:45:00,2.0,1.84620,0.00036,389.633,0.035,-0.0011,0.0021,139.999,45.000,32009.44909,1.84617,389.628,29.993,45.072,45.000,0.00,0.09,-272.74,-272.80,-4,595,-938,19.1,4.7,-22.1,18.7,4.9,-21.8,5.73,1.96,-15.5,23.3
2015-12-28 06:46:00,2.0,1.84624,0.00034,389.606,0.033,0.0002,0.0017,140.003,45.000,32012.60435,1.84625,389.606,30.004,45.072,45.000,0.00,0.09,-272.75,-272.81,-3,595,-938,19.1,4.7,-22.2,18.7,4.9,-21.9,5.73,1.94,-15.5,23.2
2015-12-28 06:47:00,2.0,1.84626,0.00041,389.616,0.021,-0.0006,0.0021,139.997,45.000,32012.21541,1.84624,389.613,30.018,45.072,45.000,0.00,0.09,-272.73,-272.80,-4,595,-938,19.1,4.6,-22.3,18.7,4.9,-22.0,5.73,1.94,-15.5,23.3
2015-12-28 06:48:00,2.0,1.84630,0.00038,389.636,0.038,-0.0003,0.0020,139.999,45.000,32012.61133,1.84628,389.633,30.046,45.072,45.000,0.00,0.09,-272.74,-272.80,-3,595,-938,19.1,4.6,-22.3,18.7,4.8,-22.1,5.73,1.94,-15.5,23.3
2015-12-28 06:49:00,2.0,1.84624,0.00031,389.623,0.039,-0.0011,0.0023,140.000,45.000,32014.33773,1.84623,389.620,30.063,45.072,45.000,0.00,0.09,-272.75,-272.80,-3,595,-938,19.1,4.7,-22.3,18.7,4.9,-22.1,5.73,2.05,-15.5,23.3
2015-12-28 06:50:00,4.0,1.77438,0.02581,370.661,7.431,0.0013,0.0023,139.979,45.000,31722.82243,1.77715,371.032,30.069,45.072,45.000,0.00,0.09,-272.74,-272.79,-4,553,-939,19.1,4.7,-22.2,18.7,4.9,-22.0,5.73,2.00,-15.5,23.3
2015-12-28 06:51:00,4.0,1.76394,0.00027,367.754,0.031,0.0005,0.0017,139.997,45.000,31720.68138,1.76393,367.755,30.094,45.072,45.000,0.00,0.09,-272.74,-272.80,-3,551,-939,19.1,4.7,-22.1,18.7,4.9,-21.9,5.73,1.96,-15.5,23.3
2015-12-28 06:52:00,4.0,1.76383,0.00044,367.775,0.028,0.0002,0.0016,139.997,45.000,31704.64313,1.76387,367.776,30.103,45.072,45.000,0.00,0.09,-272.75,-272.81,-3,549,-939,19.1,4.8,-22.0,18.7,5.0,-21.8,5.73,1.98,-15.5,23.3
2015-12-28 06:53:00,4.0,1.76375,0.00024,367.772,0.043,0.0004,0.0015,139.998,45.000,31693.24692,1.76375,367.774,30.121,45.071,45.000,0.00,0.09,-272.75,-272.80,-3,548,-939,19.1,4.8,-21.9,18.7,5.0,-21.8,5.73,2.03,-15.5,23.3
2015-12-28 06:54:00,4.0,1.76379,0.00028,367.740,0.034,0.0003,0.0020,140.000,45.000,31685.28565,1.76379,367.742,30.121,45.071,45.000,0.00,0.09,-272.74,-272.79,-3,547,-939,19.1,4.8,-21.8,18.7,5.0,-21.7,5.73,2.03,-15.5,23.3
2015-12-28 06:55:00,4.0,1.76387,0.00031,367.744,0.025,0.0010,0.0015,140.000,45.000,31676.35687,1.76387,367.748,30.124,45.071,45.000,0.00,0.09,-272.74,-272.80,-3,547,-939,19.1,4.8,-21.9,18.7,5.0,-21.6,5.73,2.03,-15.5,23.3
2015-12-28 06:56:00,4.0,1.76381,0.00034,367.732,0.026,0.0004,0.0019,139.995,45.000,31667.35736,1.76384,367.733,30.139,45.071,45.000,0.00,0.09,-272.75,-272.80,-3,546,-939,19.1,4.8,-21.9,18.7,5.0,-21.7,5.73,1.99,-15.5,23.3
2015-12-28 06:57:00,4.0,1.76402,0.00031,367.722,0.031,0.0008,0.0023,140.001,45.000,31661.96718,1.76403,367.726,30.182,45.071,45.000,0.00,0.09,-272.75,-272.80,-3,545,-939,19.1,4.8,-21.8,18.7,5.0,-21.6,5.73,2.00,-15.5,23.3
2015-12-28 06:58:00,4.0,1.76396,0.00021,367.721,0.029,0.0002,0.0018,139.999,45.000,31656.55016,1.76396,367.723,30.193,45.071,45.000,0.00,0.09,-272.74,-272.80,-3,545,-939,19.1,4.9,-21.8,18.7,5.1,-21.6,5.73,1.96,-15.5,23.3
2015-12-28 06:59:00,4.0,1.76391,0.00036,367.696,0.025,0.0010,0.0019,140.001,45.000,31653.91292,1.76390,367.700,30.240,45.071,45.000,0.00,0.09,-272.75,-272.81,-3,545,-939,19.1,4.9,-21.8,18.7,5.1,-21.6,5.73,1.89,-15.5,23.3
2015-12-28 07:00:00,4.0,1.76369,0.00034,367.697,0.020,0.0005,0.0030,139.998,45.000,31650.92071,1.76374,367.699,30.248,45.071,45.000,0.00,0.09,-272.74,-272.80,-3,544,-939,19.1,4.8,-21.9,18.7,5.0,-21.6,5.73,1.87,-15.5,23.3
2015-12-28 07:01:00,4.0,1.76392,0.00033,367.708,0.022,0.0005,0.0014,139.995,45.000,31645.91461,1.76390,367.710,30.250,45.071,45.000,0.00,0.09,-272.74,-272.80,-3,544,-939,19.1,4.8,-21.9,18.7,5.0,-21.7,5.73,1.85,-15.5,23.3
2015-12-28 07:02:00,4.0,1.76379,0.00030,367.735,0.036,0.0003,0.0017,140.001,45.000,31641.28633,1.76382,367.737,30.250,45.071,45.000,0.00,0.09,-272.75,-272.80,-3,544,-939,19.1,4.8,-21.9,18.7,5.0,-21.7,5.73,1.86,-15.5,23.3
2015-12-28 07:03:00,4.0,1.76392,0.00024,367.710,0.027,0.0001,0.0016,139.998,45.000,31638.60687,1.76392,367.711,30.250,45.071,45.000,0.00,0.09,-272.75,-272.81,-3,543,-939,19.1,4.8,-21.8,18.7,5.0,-21.7,5.73,1.91,-15.5,23.3
2015-12-28 07:04:00,4.0,1.76382,0.00029,367.723,0.026,0.0008,0.0021,139.998,45.000,31637.27602,1.76384,367.725,30.255,45.071,45.000,0.00,0.09,-272.75,-272.80,-4,543,-939,19.1,4.8,-22.0,18.7,5.0,-21.7,5.73,1.94,-15.5,23.3
2015-12-28 07:05:00,4.0,1.76389,0.00030,367.717,0.026,-0.0002,0.0018,139.999,45.001,31635.63331,1.76388,367.717,30.253,45.071,45.000,0.00,0.09,-272.75,-272.80,-4,543,-939,19.1,4.5,-22.6,18.7,4.8,-22.2,5.73,1.96,-15.5,23.3
2015-12-28 07:06:00,4.0,1.76375,0.00045,367.701,0.035,-0.0009,0.0019,139.998,45.000,31632.73524,1.76374,367.698,30.251,45.071,45.000,0.00,0.09,-272.75,-272.81,-4,543,-939,19.1,4.4,-22.9,18.7,4.6,-22.6,5.73,2.03,-15.5,23.3
2015-12-28 07:07:00,4.0,1.76380,0.00043,367.722,0.030,-0.0001,0.0017,139.998,45.000,31629.03513,1.76378,367.720,30.257,45.072,45.000,0.00,0.09,-272.74,-272.79,-4,543,-939,19.1,4.4,-22.9,18.7,4.6,-22.7,5.73,2.03,-15.5,23.3
2015-12-28 07:08:00,4.0,1.76382,0.00029,367.745,0.023,-0.0011,0.0017,139.998,45.000,31628.32838,1.76380,367.741,30.276,45.072,45.000,0.00,0.09,-272.74,-272.80,-4,542,-939,19.1,4.4,-22.9,18.7,4.6,-22.6,5.73,1.97,-15.5,23.3
2015-12-28 07:09:00,4.0,1.76384,0.00026,367.739,0.028,-0.0002,0.0022,139.996,45.000,31625.26218,1.76383,367.738,30.273,45.072,45.000,0.00,0.09,-272.75,-272.80,-4,542,-939,19.1,4.4,-22.8,18.7,4.6,-22.7,5.73,1.96,-15.5,23.3
2015-12-28 07:10:00,4.0,1.76385,0.00033,367.715,0.035,0.0005,0.0019,139.997,45.000,31623.97475,1.76387,367.718,30.286,45.072,45.000,0.00,0.09,-272.75,-272.81,-4,542,-939,19.1,4.5,-22.7,18.7,4.7,-22.5,5.73,1.88,-15.5,23.3
2015-12-28 07:11:00,4.0,1.76373,0.00028,367.734,0.029,0.0002,0.0018,139.999,45.000,31621.96322,1.76371,367.734,30.264,45.072,45.000,0.00,0.09,-272.74,-272.79,-4,542,-939,19.1,4.6,-22.4,18.7,4.8,-22.3,5.73,1.88,-15.5,23.3
2015-12-28 07:12:00,4.0,1.76391,0.00028,367.708,0.027,0.0005,0.0014,139.998,45.000,31621.02018,1.76391,367.710,30.273,45.072,45.000,0.00,0.09,-272.75,-272.80,-4,542,-939,19.1,4.7,-22.2,18.7,4.9,-22.1,5.73,1.88,-15.5,23.3
2015-12-28 07:13:00,4.0,1.76392,0.00035,367.722,0.032,-0.0008,0.0019,139.997,45.000,31619.39043,1.76393,367.719,30.292,45.072,45.000,0.00,0.09,-272.75,-272.80,-4,541,-939,19.0,4.8,-22.0,18.7,4.9,-21.9,5.73,1.88,-15.5,23.4
2015-12-28 07:14:00,4.0,1.76396,0.00039,367.734,0.037,-0.0007,0.0016,139.999,45.000,31617.72401,1.76394,367.731,30.302,45.072,45.000,0.00,0.09,-272.74,-272.80,-3,541,-939,19.1,4.8,-21.9,18.7,5.0,-21.7,5.73,1.98,-15.5,23.4
2015-12-28 07:15:00,1.0,1.82193,0.02118,382.797,5.421,0.0038,0.0033,140.028,45.000,31990.95900,1.81995,382.537,30.313,45.071,45.000,0.00,0.09,-272.74,-272.79,-4,599,-938,19.0,4.9,-21.8,18.7,5.1,-21.6,5.73,2.00,-15.5,23.4
2015-12-28 07:16:00,1.0,1.82510,0.00035,384.371,0.039,0.0027,0.0016,139.999,45.000,32001.50976,1.82517,384.383,30.313,45.071,45.000,0.00,0.09,-272.75,-272.80,-4,597,-939,19.1,4.9,-21.6,18.7,5.1,-21.5,5.73,2.06,-15.5,23.4
2015-12-28 07:17:00,1.0,1.82525,0.00036,384.389,0.028,0.0028,0.0019,140.001,45.000,32007.78784,1.82530,384.403,30.313,45.071,45.000,0.00,0.09,-272.75,-272.81,-3,597,-938,19.1,5.0,-21.6,18.7,5.2,-21.4,5.73,2.03,-15.5,23.4
2015-12-28 07:18:00,1.0,1.82526,0.00035,384.401,0.029,0.0029,0.0019,139.998,45.000,32011.19328,1.82531,384.415,30.313,45.072,45.000,0.00,0.09,-272.73,-272.80,-3,597,-938,19.1,5.0,-21.5,18.7,5.2,-21.3,5.73,1.99,-15.5,23.4
2015-12-28 07:19:00,1.0,1.82538,0.00038,384.407,0.032,0.0012,0.0016,139.999,45.000,32013.42870,1.82538,384.413,30.313,45.072,45.000,0.00,0.09,-272.75,-272.81,-3,597,-938,19.1,5.0,-21.4,18.7,5.3,-21.2,5.73,1.92,-15.5,23.4
2015-12-28 07:20:00,1.0,1.82555,0.00032,384.404,0.032,0.0006,0.0018,139.997,45.000,32016.04838,1.82556,384.406,30.321,45.072,45.000,0.00,0.09,-272.74,-272.80,-3,596,-939,19.0,5.0,-21.4,18.7,5.3,-21.1,5.73,1.88,-15.5,23.4
2015-12-28 07:21:00,1.0,1.82563,0.00036,384.400,0.026,0.0014,0.0024,139.999,45.001,32018.89038,1.82567,384.407,30.335,45.072,45.000,0.00,0.09,-272.75,-272.80,-3,596,-938,19.1,5.0,-21.4,18.7,5.3,-21.1,5.73,1.87,-15.5,23.4
2015-12-28 07:22:00,1.0,1.82548,0.00027,384.403,0.027,0.0001,0.0020,139.999,45.001,32022.96056,1.82547,384.403,30.366,45.072,45.000,0.00,0.09,-272.74,-272.79,-3,596,-939,19.1,5.0,-21.5,18.7,5.2,-21.2,5.73,1.86,-15.5,23.4
2015-12-28 07:23:00,1.0,1.82565,0.00034,384.410,0.027,0.0011,0.0014,140.000,45.000,32023.75368,1.82567,384.415,30.370,45.071,45.000,0.00,0.09,-272.74,-272.80,-4,596,-939,19.1,4.9,-21.7,18.7,5.1,-21.4,5.73,1.93,-15.5,23.4
2015-12-28 07:24:00,1.0,1.82553,0.00029,384.391,0.029,0.0007,0.0022,139.999,45.000,32025.29728,1.82554,384.394,30.375,45.071,45.000,0.00,0.09,-272.74,-272.79,-4,596,-939,19.1,4.9,-21.7,18.7,5.1,-21.4,5.73,2.00,-15.5,23.4
2015-12-28 07:25:00,1.0,1.82559,0.00041,384.405,0.031,0.0002,0.0016,140.000,45.000,32025.46594,1.82561,384.407,30.376,45.071,45.000,0.00,0.09,-272.74,-272.80,-4,596,-939,19.1,4.9,-21.6,18.7,5.1,-21.4,5.73,2.02,-15.5,23.4
2015-12-28 07:26:00,1.0,1.82533,0.00024,384.397,0.029,-0.0001,0.0023,139.999,45.000,32026.06229,1.82532,384.395,30.373,45.071,45.000,0.00,0.09,-272.75,-272.80,-4,596,-939,19.1,5.0,-21.5,18.7,5.2,-21.3,5.73,2.01,-15.5,23.4
2015-12-28 07:27:00,1.0,1.82538,0.00035,384.406,0.028,0.0000,0.0018,140.000,45.000,32027.16100,1.82538,384.406,30.374,45.071,45.000,0.00,0.09,-272.75,-272.80,-4,596,-939,19.0,5.0,-21.4,18.7,5.2,-21.2,5.73,1.99,-15.5,23.4
2015-12-28 07:28:00,1.0,1.82565,0.00031,384.392,0.030,-0.0009,0.0024,140.000,45.000,32026.33157,1.82563,384.387,30.375,45.072,45.000,0.00,0.09,-272.74,-272.80,-4,596,-939,19.1,5.1,-21.2,18.7,5.3,-21.0,5.73,1.96,-15.5,23.4
2015-12-28 07:29:00,1.0,1.82544,0.00037,384.421,0.026,0.0005,0.0023,140.001,45.000,32029.22888,1.82545,384.425,30.371,45.072,45.000,0.00,0.09,-272.75,-272.81,-4,596,-939,19.1,5.2,-21.1,18.7,5.4,-20.8,5.73,1.89,-15.5,23.4
2015-12-28 07:30:00,1.0,1.82547,0.00041,384.404,0.031,-0.0006,0.0017,139.999,45.000,32030.64202,1.82546,384.401,30.348,45.072,45.000,0.00,0.09,-272.74,-272.81,-4,596,-939,19.1,5.2,-21.0,18.7,5.5,-20.7,5.73,1.84,-15.5,23.4
2015-12-28 07:31:00,1.0,1.82554,0.00041,384.426,0.028,-0.0002,0.0017,140.002,45.000,32029.72094,1.82553,384.425,30.364,45.072,45.000,0.00,0.09,-272.74,-272.80,-4,595,-939,19.1,5.3,-20.8,18.7,5.5,-20.5,5.73,1.85,-15.5,23.4
2015-12-28 07:32:00,1.0,1.82552,0.00034,384.397,0.032,-0.0004,0.0017,139.999,45.000,32030.03424,1.82552,384.395,30.373,45.072,45.000,0.00,0.09,-272.74,-272.80,-4,595,-939,19.1,5.2,-20.9,18.7,5.5,-20.6,5.73,1.91,-15.5,23.4
2015-12-28 07:33:00,1.0,1.82550,0.00037,384.422,0.031,-0.0004,0.0017,140.001,45.000,32029.84365,1.82547,384.421,30.375,45.072,45.000,0.00,0.09,-272.76,-272.80,-4,595,-939,19.1,5.2,-21.0,18.7,5.5,-20.7,5.73,1.94,-15.5,23.4